Time,TemperatureF,DewpointF,PressureIn,WindDirection,WindDirectionDegrees,WindSpeedMPH,WindSpeedGustMPH,Humidity,HourlyPrecipIn,Conditions,Clouds,dailyrainin,SoftwareType,DateUTC
2013-08-25 00:00:00,74.9,37.7,29.65,SSW,208,1.0,5.0,26,0.00,CLR,,0.00,WeatherDisplay:10.37,2013-08-25 07:00:00,
2013-08-25 00:10:00,74.3,38.1,29.65,SSW,208,2.0,5.0,27,0.00,CLR,,0.00,WeatherDisplay:10.37,2013-08-25 07:10:00,
2013-08-25 00:15:00,74.0,37.8,29.65,SSW,208,1.0,4.0,27,0.00,CLR,,0.00,WeatherDisplay:10.37,2013-08-25 07:15:00,
2013-08-25 00:20:00,73.7,37.6,29.65,SSW,208,1.0,4.0,27,0.00,CLR,,0.00,WeatherDisplay:10.37,2013-08-25 07:20:00,
2013-08-25 00:25:00,73.3,37.3,29.65,SSW,208,1.0,6.0,27,0.00,CLR,,0.00,WeatherDisplay:10.37,2013-08-25 07:25:00,
2013-08-25 00:30:00,73.2,37.2,29.65,SSW,208,1.0,5.0,27,0.00,CLR,,0.00,WeatherDisplay:10.37,2013-08-25 07:30:00,
2013-08-25 00:40:00,72.8,36.9,29.66,SSW,205,2.0,7.0,27,0.00,CLR,,0.00,WeatherDisplay:10.37,2013-08-25 07:40:00,
2013-08-25 00:45:00,72.8,36.9,29.66,SSW,204,1.0,5.0,27,0.00,CLR,,0.00,WeatherDisplay:10.37,2013-08-25 07:45:00,
2013-08-25 00:50:00,72.8,36.9,29.66,SSW,204,0.0,4.0,27,0.00,CLR,,0.00,WeatherDisplay:10.37,2013-08-25 07:50:00,
2013-08-25 00:55:00,72.8,36.9,29.66,SSW,204,2.0,5.0,27,0.00,CLR,,0.00,WeatherDisplay:10.37,2013-08-25 07:55:00,
2013-08-25 01:00:00,72.7,37.7,29.66,SSW,204,2.0,3.0,28,0.00,CLR,,0.00,WeatherDisplay:10.37,2013-08-25 08:00:00,
2013-08-25 01:10:00,72.3,36.4,29.66,SSW,203,2.0,6.0,27,0.00,CLR,,0.00,WeatherDisplay:10.37,2013-08-25 08:10:00,
2013-08-25 01:15:00,72.0,36.2,29.66,SSW,203,2.0,6.0,27,0.00,CLR,,0.00,WeatherDisplay:10.37,2013-08-25 08:15:00,
2013-08-25 01:20:00,71.6,35.8,29.66,SSW,203,1.0,5.0,27,0.00,CLR,,0.00,WeatherDisplay:10.37,2013-08-25 08:20:00,
2013-08-25 01:30:00,71.1,35.4,29.66,SSW,202,2.0,5.0,27,0.00,CLR,,0.00,WeatherDisplay:10.37,2013-08-25 08:30:00,
2013-08-25 01:40:00,71.5,35.7,29.65,SSW,203,6.0,9.0,27,0.00,CLR,,0.00,WeatherDisplay:10.37,2013-08-25 08:40:00,
2013-08-25 01:45:00,71.4,35.7,29.65,SSW,194,3.0,12.0,27,0.00,CLR,,0.00,WeatherDisplay:10.37,2013-08-25 08:45:00,
2013-08-25 01:50:00,72.0,36.2,29.65,South,189,1.0,10.0,27,0.00,CLR,,0.00,WeatherDisplay:10.37,2013-08-25 08:50:00,
2013-08-25 01:55:00,71.9,36.1,29.65,SSW,194,3.0,7.0,27,0.00,CLR,,0.00,WeatherDisplay:10.37,2013-08-25 08:55:00,
2013-08-25 02:00:00,71.4,35.7,29.65,SSW,193,3.0,7.0,27,0.00,CLR,,0.00,WeatherDisplay:10.37,2013-08-25 09:00:00,
2013-08-25 02:10:00,70.9,35.2,29.65,South,190,5.0,9.0,27,0.00,CLR,,0.00,WeatherDisplay:10.37,2013-08-25 09:10:00,
2013-08-25 02:15:00,71.3,35.5,29.65,SSW,192,5.0,8.0,27,0.00,CLR,,0.00,WeatherDisplay:10.37,2013-08-25 09:15:00,
2013-08-25 02:20:00,71.3,35.6,29.65,SSW,193,3.0,7.0,27,0.00,CLR,,0.00,WeatherDisplay:10.37,2013-08-25 09:20:00,
2013-08-25 02:25:00,71.3,35.6,29.65,SSW,193,2.0,6.0,27,0.00,CLR,,0.00,WeatherDisplay:10.37,2013-08-25 09:25:00,
2013-08-25 02:30:00,70.9,35.2,29.65,SSW,193,1.0,5.0,27,0.00,CLR,,0.00,WeatherDisplay:10.37,2013-08-25 09:30:00,
2013-08-25 02:40:00,69.6,34.1,29.66,SSW,192,2.0,5.0,27,0.00,CLR,,0.00,WeatherDisplay:10.37,2013-08-25 09:40:00,
2013-08-25 02:45:00,69.1,34.6,29.66,South,190,3.0,7.0,28,0.00,CLR,,0.00,WeatherDisplay:10.37,2013-08-25 09:45:00,
2013-08-25 02:50:00,68.6,34.2,29.66,South,186,3.0,7.0,28,0.00,CLR,,0.00,WeatherDisplay:10.37,2013-08-25 09:50:00,
2013-08-25 02:55:00,68.6,34.2,29.66,South,183,3.0,6.0,28,0.00,CLR,,0.00,WeatherDisplay:10.37,2013-08-25 09:55:00,
2013-08-25 03:00:00,68.6,34.2,29.66,South,180,1.0,6.0,28,0.00,CLR,,0.00,WeatherDisplay:10.37,2013-08-25 10:00:00,
2013-08-25 03:10:00,68.4,34.0,29.67,South,182,2.0,6.0,28,0.00,CLR,,0.00,WeatherDisplay:10.37,2013-08-25 10:10:00,
2013-08-25 03:15:00,67.9,34.4,29.67,South,182,3.0,5.0,29,0.00,CLR,,0.00,WeatherDisplay:10.37,2013-08-25 10:15:00,
2013-08-25 03:20:00,67.6,34.2,29.66,South,182,1.0,4.0,29,0.00,CLR,,0.00,WeatherDisplay:10.37,2013-08-25 10:20:00,
2013-08-25 03:25:00,67.4,34.0,29.67,South,182,1.0,4.0,29,0.00,CLR,,0.00,WeatherDisplay:10.37,2013-08-25 10:25:00,
2013-08-25 03:30:00,67.1,33.8,29.67,WSW,246,2.0,6.0,29,0.00,CLR,,0.00,WeatherDisplay:10.37,2013-08-25 10:30:00,
2013-08-25 03:35:00,66.8,33.5,29.67,West,263,3.0,4.0,29,0.00,CLR,,0.00,WeatherDisplay:10.37,2013-08-25 10:35:00,
2013-08-25 03:40:00,66.8,34.3,29.67,West,262,3.0,5.0,30,0.00,CLR,,0.00,WeatherDisplay:10.37,2013-08-25 10:40:00,
2013-08-25 03:45:00,67.6,33.3,29.67,West,260,2.0,5.0,28,0.00,CLR,,0.00,WeatherDisplay:10.37,2013-08-25 10:45:00,
2013-08-25 03:50:00,67.6,33.3,29.67,West,260,2.0,3.0,28,0.00,CLR,,0.00,WeatherDisplay:10.37,2013-08-25 10:50:00,
2013-08-25 03:55:00,67.3,34.0,29.67,West,260,0.0,2.0,29,0.00,CLR,,0.00,WeatherDisplay:10.37,2013-08-25 10:55:00,
2013-08-25 04:00:00,67.1,33.8,29.67,West,260,0.0,0.0,29,0.00,CLR,,0.00,WeatherDisplay:10.37,2013-08-25 11:00:00,
2013-08-25 04:10:00,67.1,33.8,29.68,WSW,253,3.0,6.0,29,0.00,CLR,,0.00,WeatherDisplay:10.37,2013-08-25 11:10:00,
2013-08-25 04:15:00,67.9,33.6,29.68,WSW,245,2.0,5.0,28,0.00,CLR,,0.00,WeatherDisplay:10.37,2013-08-25 11:15:00,
2013-08-25 04:20:00,69.0,34.5,29.67,WSW,237,2.0,7.0,28,0.00,CLR,,0.00,WeatherDisplay:10.37,2013-08-25 11:20:00,
2013-08-25 04:25:00,69.3,34.8,29.68,SW,234,1.0,3.0,28,0.00,CLR,,0.00,WeatherDisplay:10.37,2013-08-25 11:25:00,
2013-08-25 04:30:00,69.3,34.8,29.68,SW,232,2.0,5.0,28,0.00,CLR,,0.00,WeatherDisplay:10.37,2013-08-25 11:30:00,
2013-08-25 04:35:00,68.4,34.0,29.68,SW,225,2.0,5.0,28,0.00,CLR,,0.00,WeatherDisplay:10.37,2013-08-25 11:35:00,
2013-08-25 04:40:00,67.5,33.2,29.68,SW,224,2.0,4.0,28,0.00,CLR,,0.00,WeatherDisplay:10.37,2013-08-25 11:40:00,
2013-08-25 04:45:00,67.0,33.7,29.69,SW,224,0.0,2.0,29,0.00,CLR,,0.00,WeatherDisplay:10.37,2013-08-25 11:45:00,
2013-08-25 04:50:00,66.6,34.2,29.69,SW,224,0.0,0.0,30,0.00,CLR,,0.00,WeatherDisplay:10.37,2013-08-25 11:50:00,
2013-08-25 04:55:00,66.3,33.9,29.69,SW,224,0.0,2.0,30,0.00,CLR,,0.00,WeatherDisplay:10.37,2013-08-25 11:55:00,
2013-08-25 05:00:00,66.1,33.7,29.70,SW,223,1.0,2.0,30,0.00,CLR,,0.00,WeatherDisplay:10.37,2013-08-25 12:00:00,
2013-08-25 05:10:00,65.6,33.3,29.69,SW,223,0.0,3.0,30,0.00,CLR,,0.00,WeatherDisplay:10.37,2013-08-25 12:10:00,
2013-08-25 05:15:00,65.3,33.9,29.70,SW,224,0.0,1.0,31,0.00,CLR,,0.00,WeatherDisplay:10.37,2013-08-25 12:15:00,
2013-08-25 05:20:00,64.9,33.5,29.70,SW,223,0.0,0.0,31,0.00,CLR,,0.00,WeatherDisplay:10.37,2013-08-25 12:20:00,
2013-08-25 05:25:00,64.3,33.8,29.70,SW,224,2.0,3.0,32,0.00,CLR,,0.00,WeatherDisplay:10.37,2013-08-25 12:25:00,
2013-08-25 05:30:00,64.2,34.5,29.71,SW,224,2.0,4.0,33,0.00,CLR,,0.00,WeatherDisplay:10.37,2013-08-25 12:30:00,
2013-08-25 05:40:00,64.3,35.3,29.71,SW,224,0.0,2.0,34,0.00,CLR,,0.00,WeatherDisplay:10.37,2013-08-25 12:40:00,
2013-08-25 05:45:00,64.8,35.8,29.70,SW,224,2.0,4.0,34,0.00,CLR,,0.00,WeatherDisplay:10.37,2013-08-25 12:45:00,
2013-08-25 05:50:00,65.2,34.6,29.70,SW,224,2.0,3.0,32,0.00,CLR,,0.00,WeatherDisplay:10.37,2013-08-25 12:50:00,
2013-08-25 05:55:00,64.3,34.6,29.71,SW,224,2.0,3.0,33,0.00,CLR,,0.00,WeatherDisplay:10.37,2013-08-25 12:55:00,
2013-08-25 06:00:00,63.2,33.6,29.71,SW,224,3.0,5.0,33,0.00,CLR,,0.00,WeatherDisplay:10.37,2013-08-25 13:00:00,
2013-08-25 06:10:00,64.0,35.0,29.72,SW,224,5.0,6.0,34,0.00,CLR,,0.00,WeatherDisplay:10.37,2013-08-25 13:10:00,
2013-08-25 06:15:00,64.3,34.6,29.72,SW,224,0.0,4.0,33,0.00,CLR,,0.00,WeatherDisplay:10.37,2013-08-25 13:15:00,
2013-08-25 06:20:00,64.7,34.9,29.72,SW,224,1.0,4.0,33,0.00,CLR,,0.00,WeatherDisplay:10.37,2013-08-25 13:20:00,
2013-08-25 06:25:00,64.6,34.9,29.72,SW,222,2.0,4.0,33,0.00,CLR,,0.00,WeatherDisplay:10.37,2013-08-25 13:25:00,
2013-08-25 06:30:00,64.5,35.5,29.73,SW,217,5.0,6.0,34,0.00,CLR,,0.00,WeatherDisplay:10.37,2013-08-25 13:30:00,
2013-08-25 06:35:00,66.5,34.9,29.73,SW,214,7.0,9.0,31,0.00,CLR,,0.00,WeatherDisplay:10.37,2013-08-25 13:35:00,
2013-08-25 06:40:00,67.9,34.5,29.72,SSW,213,5.0,7.0,29,0.00,CLR,,0.00,WeatherDisplay:10.37,2013-08-25 13:40:00,
2013-08-25 06:45:00,68.1,33.8,29.73,SSW,213,1.0,6.0,28,0.00,CLR,,0.00,WeatherDisplay:10.37,2013-08-25 13:45:00,
2013-08-25 06:50:00,68.1,34.6,29.73,SSW,213,0.0,0.0,29,0.00,CLR,,0.00,WeatherDisplay:10.37,2013-08-25 13:50:00,
2013-08-25 06:55:00,68.4,34.9,29.74,SSW,213,0.0,0.0,29,0.00,CLR,,0.00,WeatherDisplay:10.37,2013-08-25 13:55:00,
2013-08-25 07:00:00,68.4,35.7,29.74,SSW,213,0.0,0.0,30,0.00,CLR,,0.00,WeatherDisplay:10.37,2013-08-25 14:00:00,
2013-08-25 07:10:00,68.9,35.3,29.74,SSW,213,0.0,0.0,29,0.00,CLR,,0.00,WeatherDisplay:10.37,2013-08-25 14:10:00,
2013-08-25 07:15:00,69.1,35.5,29.74,SSW,213,0.0,0.0,29,0.00,CLR,,0.00,WeatherDisplay:10.37,2013-08-25 14:15:00,
2013-08-25 07:20:00,69.1,37.2,29.74,SSW,213,0.0,0.0,31,0.00,CLR,,0.00,WeatherDisplay:10.37,2013-08-25 14:20:00,
2013-08-25 07:25:00,69.1,36.3,29.74,SSW,213,0.0,1.0,30,0.00,CLR,,0.00,WeatherDisplay:10.37,2013-08-25 14:25:00,
2013-08-25 07:30:00,69.1,34.6,29.75,SSW,213,0.0,0.0,28,0.00,CLR,,0.00,WeatherDisplay:10.37,2013-08-25 14:30:00,
2013-08-25 07:40:00,69.3,33.9,29.75,SSW,213,0.0,2.0,27,0.00,CLR,,0.00,WeatherDisplay:10.37,2013-08-25 14:40:00,
2013-08-25 07:45:00,69.6,35.0,29.75,SSW,213,0.0,3.0,28,0.00,CLR,,0.00,WeatherDisplay:10.37,2013-08-25 14:45:00,
2013-08-25 07:50:00,70.0,34.4,29.75,SSW,213,2.0,4.0,27,0.00,CLR,,0.00,WeatherDisplay:10.37,2013-08-25 14:50:00,
2013-08-25 07:55:00,70.6,35.0,29.75,SSW,213,1.0,4.0,27,0.00,CLR,,0.00,WeatherDisplay:10.37,2013-08-25 14:55:00,
2013-08-25 08:00:00,71.3,35.6,29.75,SSW,213,2.0,5.0,27,0.00,CLR,,0.00,WeatherDisplay:10.37,2013-08-25 15:00:00,
2013-08-25 08:10:00,72.6,35.7,29.74,SSW,213,2.0,4.0,26,0.00,CLR,,0.00,WeatherDisplay:10.37,2013-08-25 15:10:00,
2013-08-25 08:20:00,73.9,35.8,29.74,SSW,213,1.0,4.0,25,0.00,CLR,,0.00,WeatherDisplay:10.37,2013-08-25 15:20:00,
2013-08-25 08:25:00,74.4,34.2,29.75,SSW,213,2.0,4.0,23,0.00,CLR,,0.00,WeatherDisplay:10.37,2013-08-25 15:25:00,
2013-08-25 08:30:00,74.9,34.6,29.75,SSW,213,1.0,4.0,23,0.00,CLR,,0.00,WeatherDisplay:10.37,2013-08-25 15:30:00,
2013-08-25 08:40:00,75.8,35.3,29.75,SSW,213,2.0,4.0,23,0.00,CLR,,0.00,WeatherDisplay:10.37,2013-08-25 15:40:00,
2013-08-25 08:45:00,76.3,34.6,29.75,SSW,213,2.0,3.0,22,0.00,CLR,,0.00,WeatherDisplay:10.37,2013-08-25 15:45:00,
2013-08-25 08:50:00,76.8,35.0,29.75,SSW,213,0.0,1.0,22,0.00,CLR,,0.00,WeatherDisplay:10.37,2013-08-25 15:50:00,
2013-08-25 08:55:00,76.8,36.2,29.75,SSW,213,3.0,5.0,23,0.00,CLR,,0.00,WeatherDisplay:10.37,2013-08-25 15:55:00,
2013-08-25 09:00:00,76.8,35.1,29.75,SSW,213,2.0,4.0,22,0.00,CLR,,0.00,WeatherDisplay:10.37,2013-08-25 16:00:00,
2013-08-25 09:10:00,77.4,35.6,29.75,SSW,213,1.0,3.0,22,0.00,CLR,,0.00,WeatherDisplay:10.37,2013-08-25 16:10:00,
2013-08-25 09:15:00,77.8,35.9,29.75,SW,214,2.0,4.0,22,0.00,CLR,,0.00,WeatherDisplay:10.37,2013-08-25 16:15:00,
2013-08-25 09:20:00,78.1,36.2,29.75,SSW,213,2.0,4.0,22,0.00,CLR,,0.00,WeatherDisplay:10.37,2013-08-25 16:20:00,
2013-08-25 09:25:00,78.8,35.5,29.75,SSW,213,0.0,3.0,21,0.00,CLR,,0.00,WeatherDisplay:10.37,2013-08-25 16:25:00,
2013-08-25 09:30:00,79.4,36.1,29.76,SSW,213,0.0,3.0,21,0.00,CLR,,0.00,WeatherDisplay:10.37,2013-08-25 16:30:00,
2013-08-25 09:40:00,80.2,35.5,29.76,SSW,213,1.0,3.0,20,0.00,CLR,,0.00,WeatherDisplay:10.37,2013-08-25 16:40:00,
2013-08-25 09:45:00,80.6,35.8,29.76,SSW,213,1.0,3.0,20,0.00,CLR,,0.00,WeatherDisplay:10.37,2013-08-25 16:45:00,
2013-08-25 09:50:00,81.1,36.2,29.76,SW,214,2.0,4.0,20,0.00,CLR,,0.00,WeatherDisplay:10.37,2013-08-25 16:50:00,
2013-08-25 09:55:00,81.1,36.2,29.76,SW,214,3.0,4.0,20,0.00,CLR,,0.00,WeatherDisplay:10.37,2013-08-25 16:55:00,
2013-08-25 10:00:00,81.2,35.0,29.76,SW,214,2.0,4.0,19,0.00,CLR,,0.00,WeatherDisplay:10.37,2013-08-25 17:00:00,
2013-08-25 10:10:00,82.4,36.0,29.76,SW,214,0.0,3.0,19,0.00,CLR,,0.00,WeatherDisplay:10.37,2013-08-25 17:10:00,
2013-08-25 10:15:00,82.8,36.3,29.75,SSW,213,1.0,5.0,19,0.00,CLR,,0.00,WeatherDisplay:10.37,2013-08-25 17:15:00,
2013-08-25 10:20:00,83.2,35.3,29.75,SSW,213,2.0,4.0,18,0.00,CLR,,0.00,WeatherDisplay:10.37,2013-08-25 17:20:00,
2013-08-25 10:25:00,83.2,35.3,29.75,SW,214,2.0,4.0,18,0.00,CLR,,0.00,WeatherDisplay:10.37,2013-08-25 17:25:00,
2013-08-25 10:30:00,83.6,34.2,29.75,SW,214,2.0,5.0,17,0.00,CLR,,0.00,WeatherDisplay:10.37,2013-08-25 17:30:00,
2013-08-25 10:40:00,85.5,34.2,29.75,SSW,212,1.0,3.0,16,0.00,CLR,,0.00,WeatherDisplay:10.37,2013-08-25 17:40:00,
2013-08-25 10:45:00,86.5,35.0,29.75,SSW,209,2.0,4.0,16,0.00,CLR,,0.00,WeatherDisplay:10.37,2013-08-25 17:45:00,
2013-08-25 10:50:00,86.5,35.0,29.75,SSW,208,1.0,3.0,16,0.00,CLR,,0.00,WeatherDisplay:10.37,2013-08-25 17:50:00,
2013-08-25 10:55:00,87.3,34.0,29.75,SSW,195,0.0,5.0,15,0.00,CLR,,0.00,WeatherDisplay:10.37,2013-08-25 17:55:00,
2013-08-25 11:00:00,87.9,34.5,29.74,South,188,2.0,6.0,15,0.00,CLR,,0.00,WeatherDisplay:10.37,2013-08-25 18:00:00,
2013-08-25 11:10:00,86.3,34.8,29.74,South,191,6.0,7.0,16,0.00,CLR,,0.00,WeatherDisplay:10.37,2013-08-25 18:10:00,
2013-08-25 11:15:00,87.0,35.4,29.74,South,191,1.0,6.0,16,0.00,CLR,,0.00,WeatherDisplay:10.37,2013-08-25 18:15:00,
2013-08-25 11:20:00,88.4,36.5,29.73,South,190,1.0,5.0,16,0.00,CLR,,0.00,WeatherDisplay:10.37,2013-08-25 18:20:00,
2013-08-25 11:25:00,89.3,37.2,29.73,SE,139,8.0,12.0,16,0.00,CLR,,0.00,WeatherDisplay:10.37,2013-08-25 18:25:00,
2013-08-25 11:30:00,89.3,38.8,29.73,ESE,119,6.0,13.0,17,0.00,CLR,,0.00,WeatherDisplay:10.37,2013-08-25 18:30:00,
2013-08-25 11:40:00,89.9,36.1,29.73,SE,138,5.0,9.0,15,0.00,CLR,,0.00,WeatherDisplay:10.37,2013-08-25 18:40:00,
2013-08-25 11:45:00,89.6,35.8,29.73,SE,133,6.0,10.0,15,0.00,CLR,,0.00,WeatherDisplay:10.37,2013-08-25 18:45:00,
2013-08-25 11:50:00,90.0,36.2,29.73,SE,124,5.0,12.0,15,0.00,CLR,,0.00,WeatherDisplay:10.37,2013-08-25 18:50:00,
2013-08-25 11:55:00,90.3,38.0,29.73,SE,124,3.0,10.0,16,0.00,CLR,,0.00,WeatherDisplay:10.37,2013-08-25 18:55:00,
2013-08-25 12:00:00,89.7,37.5,29.73,SSE,152,5.0,13.0,16,0.00,CLR,,0.00,WeatherDisplay:10.37,2013-08-25 19:00:00,
2013-08-25 12:10:00,90.1,36.2,29.72,SSE,166,2.0,7.0,15,0.00,CLR,,0.00,WeatherDisplay:10.37,2013-08-25 19:10:00,
2013-08-25 12:15:00,90.7,36.7,29.72,SE,130,6.0,12.0,15,0.00,CLR,,0.00,WeatherDisplay:10.37,2013-08-25 19:15:00,
2013-08-25 12:20:00,91.0,36.9,29.71,SSE,149,7.0,12.0,15,0.00,CLR,,0.00,WeatherDisplay:10.37,2013-08-25 19:20:00,
2013-08-25 12:25:00,90.5,36.6,29.71,South,171,3.0,7.0,15,0.00,CLR,,0.00,WeatherDisplay:10.37,2013-08-25 19:25:00,
2013-08-25 12:30:00,91.1,37.0,29.72,SSE,157,5.0,10.0,15,0.00,CLR,,0.00,WeatherDisplay:10.37,2013-08-25 19:30:00,
2013-08-25 12:40:00,91.2,35.3,29.71,South,173,6.0,12.0,14,0.00,CLR,,0.00,WeatherDisplay:10.37,2013-08-25 19:40:00,
2013-08-25 12:45:00,91.7,29.7,29.71,South,176,6.0,12.0,11,0.00,CLR,,0.00,WeatherDisplay:10.37,2013-08-25 19:45:00,
2013-08-25 12:50:00,91.3,33.5,29.70,SSW,195,8.0,12.0,13,0.00,CLR,,0.00,WeatherDisplay:10.37,2013-08-25 19:50:00,
2013-08-25 12:55:00,91.1,31.4,29.70,South,181,5.0,12.0,12,0.00,CLR,,0.00,WeatherDisplay:10.37,2013-08-25 19:55:00,
2013-08-25 13:00:00,92.4,32.4,29.70,SE,145,5.0,12.0,12,0.00,CLR,,0.00,WeatherDisplay:10.37,2013-08-25 20:00:00,
2013-08-25 13:10:00,93.4,31.0,29.69,SE,126,6.0,12.0,11,0.00,CLR,,0.00,WeatherDisplay:10.37,2013-08-25 20:10:00,
2013-08-25 13:15:00,93.8,31.3,29.69,SSE,153,6.0,15.0,11,0.00,CLR,,0.00,WeatherDisplay:10.37,2013-08-25 20:15:00,
2013-08-25 13:20:00,93.6,28.8,29.69,SSE,165,6.0,12.0,10,0.00,CLR,,0.00,WeatherDisplay:10.37,2013-08-25 20:20:00,
2013-08-25 13:25:00,93.0,28.4,29.69,South,182,6.0,14.0,10,0.00,CLR,,0.00,WeatherDisplay:10.37,2013-08-25 20:25:00,
2013-08-25 13:30:00,93.0,28.4,29.69,South,177,5.0,13.0,10,0.00,CLR,,0.00,WeatherDisplay:10.37,2013-08-25 20:30:00,
2013-08-25 13:40:00,94.0,26.6,29.68,SSE,163,7.0,16.0,9,0.00,CLR,,0.00,WeatherDisplay:10.37,2013-08-25 20:40:00,
2013-08-25 13:45:00,94.3,24.0,29.68,South,175,6.0,15.0,8,0.00,CLR,,0.00,WeatherDisplay:10.37,2013-08-25 20:45:00,
2013-08-25 13:50:00,93.6,20.3,29.68,South,176,7.0,13.0,7,0.00,CLR,,0.00,WeatherDisplay:10.37,2013-08-25 20:50:00,
2013-08-25 13:55:00,93.9,23.7,29.68,South,180,6.0,18.0,8,0.00,CLR,,0.00,WeatherDisplay:10.37,2013-08-25 20:55:00,
2013-08-25 14:00:00,93.8,20.4,29.68,South,175,9.0,18.0,7,0.00,CLR,,0.00,WeatherDisplay:10.37,2013-08-25 21:00:00,
2013-08-25 14:10:00,94.0,20.6,29.68,South,181,6.0,16.0,7,0.00,CLR,,0.00,WeatherDisplay:10.37,2013-08-25 21:10:00,
2013-08-25 14:15:00,94.3,20.8,29.68,SSE,160,8.0,14.0,7,0.00,CLR,,0.00,WeatherDisplay:10.37,2013-08-25 21:15:00,
2013-08-25 14:20:00,94.5,20.9,29.66,SSE,158,3.0,12.0,7,0.00,CLR,,0.00,WeatherDisplay:10.37,2013-08-25 21:20:00,
2013-08-25 14:25:00,95.1,21.4,29.67,SSE,162,7.0,14.0,7,0.00,CLR,,0.00,WeatherDisplay:10.37,2013-08-25 21:25:00,
2013-08-25 14:30:00,95.0,21.3,29.67,South,180,9.0,14.0,7,0.00,CLR,,0.00,WeatherDisplay:10.37,2013-08-25 21:30:00,
2013-08-25 14:35:00,93.9,23.6,29.67,SSW,199,5.0,17.0,8,0.00,CLR,,0.00,WeatherDisplay:10.37,2013-08-25 21:35:00,
2013-08-25 14:40:00,94.1,26.7,29.67,SSW,204,7.0,17.0,9,0.00,CLR,,0.00,WeatherDisplay:10.37,2013-08-25 21:40:00,
2013-08-25 14:45:00,94.8,24.3,29.66,South,186,9.0,15.0,8,0.00,CLR,,0.00,WeatherDisplay:10.37,2013-08-25 21:45:00,
2013-08-25 14:50:00,94.8,24.3,29.66,South,186,1.0,13.0,8,0.00,CLR,,0.00,WeatherDisplay:10.37,2013-08-25 21:50:00,
2013-08-25 14:55:00,95.6,24.9,29.66,South,182,6.0,16.0,8,0.00,CLR,,0.00,WeatherDisplay:10.37,2013-08-25 21:55:00,
2013-08-25 15:00:00,95.1,24.5,29.65,South,179,8.0,17.0,8,0.00,CLR,,0.00,WeatherDisplay:10.37,2013-08-25 22:00:00,
2013-08-25 15:10:00,95.0,27.3,29.65,South,188,8.0,18.0,9,0.00,CLR,,0.00,WeatherDisplay:10.37,2013-08-25 22:10:00,
2013-08-25 15:15:00,95.4,27.6,29.65,SSW,202,13.0,17.0,9,0.00,CLR,,0.00,WeatherDisplay:10.37,2013-08-25 22:15:00,
2013-08-25 15:20:00,95.0,27.4,29.64,SSW,210,13.0,20.0,9,0.00,CLR,,0.00,WeatherDisplay:10.37,2013-08-25 22:20:00,
2013-08-25 15:25:00,94.7,27.1,29.64,South,178,7.0,14.0,9,0.00,CLR,,0.00,WeatherDisplay:10.37,2013-08-25 22:25:00,
2013-08-25 15:30:00,95.1,27.4,29.64,SSE,168,5.0,16.0,9,0.00,CLR,,0.00,WeatherDisplay:10.37,2013-08-25 22:30:00,
2013-08-25 15:40:00,95.9,28.0,29.63,South,191,5.0,14.0,9,0.00,CLR,,0.00,WeatherDisplay:10.37,2013-08-25 22:40:00,
2013-08-25 15:45:00,95.9,28.0,29.63,South,188,12.0,17.0,9,0.00,CLR,,0.00,WeatherDisplay:10.37,2013-08-25 22:45:00,
2013-08-25 15:50:00,95.4,27.6,29.63,SSW,208,16.0,20.0,9,0.00,CLR,,0.00,WeatherDisplay:10.37,2013-08-25 22:50:00,
2013-08-25 15:55:00,94.9,27.2,29.62,SSW,213,9.0,17.0,9,0.00,CLR,,0.00,WeatherDisplay:10.37,2013-08-25 22:55:00,
2013-08-25 16:00:00,95.6,27.8,29.62,SSW,212,12.0,21.0,9,0.00,CLR,,0.00,WeatherDisplay:10.37,2013-08-25 23:00:00,
2013-08-25 16:10:00,94.6,27.0,29.62,SSW,211,5.0,15.0,9,0.00,CLR,,0.00,WeatherDisplay:10.37,2013-08-25 23:10:00,
2013-08-25 16:15:00,94.8,27.2,29.62,South,178,8.0,16.0,9,0.00,CLR,,0.00,WeatherDisplay:10.37,2013-08-25 23:15:00,
2013-08-25 16:20:00,95.4,24.8,29.63,South,186,8.0,15.0,8,0.00,CLR,,0.00,WeatherDisplay:10.37,2013-08-25 23:20:00,
2013-08-25 16:25:00,95.1,27.4,29.63,South,190,7.0,13.0,9,0.00,CLR,,0.00,WeatherDisplay:10.37,2013-08-25 23:25:00,
2013-08-25 16:30:00,94.9,27.2,29.64,SSW,208,0.0,6.0,9,0.00,CLR,,0.00,WeatherDisplay:10.37,2013-08-25 23:30:00,
2013-08-25 16:40:00,96.1,28.1,29.63,SSW,212,9.0,14.0,9,0.00,CLR,,0.00,WeatherDisplay:10.37,2013-08-25 23:40:00,
2013-08-25 16:45:00,95.2,27.5,29.63,SW,230,5.0,16.0,9,0.00,CLR,,0.00,WeatherDisplay:10.37,2013-08-25 23:45:00,
2013-08-25 16:50:00,95.4,27.6,29.63,SW,225,3.0,12.0,9,0.00,CLR,,0.00,WeatherDisplay:10.37,2013-08-25 23:50:00,
2013-08-25 16:55:00,95.9,28.0,29.62,South,175,5.0,12.0,9,0.00,CLR,,0.00,WeatherDisplay:10.37,2013-08-25 23:55:00,
2013-08-25 17:00:00,95.9,28.0,29.62,SSE,162,6.0,14.0,9,0.00,CLR,,0.00,WeatherDisplay:10.37,2013-08-26 00:00:00,
2013-08-25 17:10:00,95.6,27.8,29.62,South,178,8.0,15.0,9,0.00,CLR,,0.00,WeatherDisplay:10.37,2013-08-26 00:10:00,
2013-08-25 17:15:00,95.6,27.8,29.62,South,171,6.0,10.0,9,0.00,CLR,,0.00,WeatherDisplay:10.37,2013-08-26 00:15:00,
2013-08-25 17:20:00,95.4,27.6,29.62,South,185,5.0,17.0,9,0.00,CLR,,0.00,WeatherDisplay:10.37,2013-08-26 00:20:00,
2013-08-25 17:25:00,95.4,27.6,29.62,SSE,166,3.0,14.0,9,0.00,CLR,,0.00,WeatherDisplay:10.37,2013-08-26 00:25:00,
2013-08-25 17:30:00,95.1,27.4,29.61,SSE,152,6.0,12.0,9,0.00,CLR,,0.00,WeatherDisplay:10.37,2013-08-26 00:30:00,
2013-08-25 17:40:00,94.9,24.4,29.61,South,178,10.0,20.0,8,0.00,CLR,,0.00,WeatherDisplay:10.37,2013-08-26 00:40:00,
2013-08-25 17:45:00,94.5,26.9,29.60,South,176,6.0,16.0,9,0.00,CLR,,0.00,WeatherDisplay:10.37,2013-08-26 00:45:00,
2013-08-25 17:50:00,94.8,27.2,29.60,South,174,7.0,14.0,9,0.00,CLR,,0.00,WeatherDisplay:10.37,2013-08-26 00:50:00,
2013-08-25 17:55:00,94.7,27.1,29.61,SSW,194,9.0,16.0,9,0.00,CLR,,0.00,WeatherDisplay:10.37,2013-08-26 00:55:00,
2013-08-25 18:00:00,94.4,26.9,29.61,South,185,7.0,17.0,9,0.00,CLR,,0.00,WeatherDisplay:10.37,2013-08-26 01:00:00,
2013-08-25 18:10:00,94.5,26.9,29.62,SW,227,12.0,18.0,9,0.00,CLR,,0.00,WeatherDisplay:10.37,2013-08-26 01:10:00,
2013-08-25 18:15:00,94.0,29.1,29.62,SW,233,7.0,15.0,10,0.00,CLR,,0.00,WeatherDisplay:10.37,2013-08-26 01:15:00,
2013-08-25 18:20:00,94.3,26.8,29.62,SW,228,8.0,15.0,9,0.00,CLR,,0.00,WeatherDisplay:10.37,2013-08-26 01:20:00,
2013-08-25 18:30:00,93.8,29.0,29.61,SW,227,7.0,13.0,10,0.00,CLR,,0.00,WeatherDisplay:10.37,2013-08-26 01:30:00,
2013-08-25 18:35:00,93.4,28.7,29.61,West,266,8.0,12.0,10,0.00,CLR,,0.00,WeatherDisplay:10.37,2013-08-26 01:35:00,
2013-08-25 18:40:00,93.0,28.4,29.61,West,270,12.0,16.0,10,0.00,CLR,,0.00,WeatherDisplay:10.37,2013-08-26 01:40:00,
2013-08-25 18:45:00,92.5,28.0,29.61,West,262,8.0,16.0,10,0.00,CLR,,0.00,WeatherDisplay:10.37,2013-08-26 01:45:00,
2013-08-25 18:50:00,92.3,27.9,29.62,West,265,7.0,16.0,10,0.00,CLR,,0.00,WeatherDisplay:10.37,2013-08-26 01:50:00,
2013-08-25 18:55:00,92.1,27.7,29.62,West,261,10.0,13.0,10,0.00,CLR,,0.00,WeatherDisplay:10.37,2013-08-26 01:55:00,
2013-08-25 19:00:00,91.8,29.8,29.62,WSW,253,9.0,13.0,11,0.00,CLR,,0.00,WeatherDisplay:10.37,2013-08-26 02:00:00,
2013-08-25 19:10:00,90.7,28.9,29.63,West,262,8.0,13.0,11,0.00,CLR,,0.00,WeatherDisplay:10.37,2013-08-26 02:10:00,
2013-08-25 19:15:00,90.1,28.5,29.64,West,274,5.0,12.0,11,0.00,CLR,,0.00,WeatherDisplay:10.37,2013-08-26 02:15:00,
2013-08-25 19:20:00,89.7,28.2,29.64,West,278,5.0,7.0,11,0.00,CLR,,0.00,WeatherDisplay:10.37,2013-08-26 02:20:00,
2013-08-25 19:25:00,89.3,27.9,29.64,West,274,6.0,9.0,11,0.00,CLR,,0.00,WeatherDisplay:10.37,2013-08-26 02:25:00,
2013-08-25 19:30:00,88.9,29.7,29.64,West,272,5.0,9.0,12,0.00,CLR,,0.00,WeatherDisplay:10.37,2013-08-26 02:30:00,
2013-08-25 19:40:00,88.2,29.2,29.64,West,275,3.0,6.0,12,0.00,CLR,,0.00,WeatherDisplay:10.37,2013-08-26 02:40:00,
2013-08-25 19:45:00,88.0,29.0,29.65,West,268,6.0,10.0,12,0.00,CLR,,0.00,WeatherDisplay:10.37,2013-08-26 02:45:00,
2013-08-25 19:50:00,88.0,31.0,29.65,West,265,6.0,10.0,13,0.00,CLR,,0.00,WeatherDisplay:10.37,2013-08-26 02:50:00,
2013-08-25 19:55:00,87.6,30.7,29.65,West,268,6.0,9.0,13,0.00,CLR,,0.00,WeatherDisplay:10.37,2013-08-26 02:55:00,
2013-08-25 20:00:00,87.2,30.4,29.66,West,269,5.0,6.0,13,0.00,CLR,,0.00,WeatherDisplay:10.37,2013-08-26 03:00:00,
2013-08-25 20:10:00,85.9,31.2,29.66,West,269,2.0,5.0,14,0.00,CLR,,0.00,WeatherDisplay:10.37,2013-08-26 03:10:00,
2013-08-25 20:15:00,85.5,30.8,29.67,SW,231,5.0,7.0,14,0.00,CLR,,0.00,WeatherDisplay:10.37,2013-08-26 03:15:00,
2013-08-25 20:20:00,85.1,42.0,29.67,ESE,119,6.0,13.0,22,0.00,CLR,,0.00,WeatherDisplay:10.37,2013-08-26 03:20:00,
2013-08-25 20:25:00,84.5,50.6,29.68,SE,132,7.0,17.0,31,0.00,CLR,,0.00,WeatherDisplay:10.37,2013-08-26 03:25:00,
2013-08-25 20:30:00,83.7,52.3,29.67,SE,139,9.0,20.0,34,0.00,CLR,,0.00,WeatherDisplay:10.37,2013-08-26 03:30:00,
2013-08-25 20:40:00,82.6,53.7,29.67,SE,137,8.0,15.0,37,0.00,CLR,,0.00,WeatherDisplay:10.37,2013-08-26 03:40:00,
2013-08-25 20:45:00,82.2,54.1,29.68,SE,143,6.0,15.0,38,0.00,CLR,,0.00,WeatherDisplay:10.37,2013-08-26 03:45:00,
2013-08-25 20:50:00,82.0,52.4,29.68,SSE,150,9.0,17.0,36,0.00,CLR,,0.00,WeatherDisplay:10.37,2013-08-26 03:50:00,
2013-08-25 20:55:00,81.8,52.2,29.69,SSE,150,6.0,15.0,36,0.00,CLR,,0.00,WeatherDisplay:10.37,2013-08-26 03:55:00,
2013-08-25 21:00:00,81.4,53.4,29.69,SE,144,9.0,16.0,38,0.00,CLR,,0.00,WeatherDisplay:10.37,2013-08-26 04:00:00,
2013-08-25 21:05:00,81.1,54.5,29.69,SE,129,8.0,20.0,40,0.00,CLR,,0.00,WeatherDisplay:10.37,2013-08-26 04:05:00,
2013-08-25 21:10:00,80.1,58.6,29.70,SE,126,9.0,21.0,48,0.00,CLR,,0.00,WeatherDisplay:10.37,2013-08-26 04:10:00,
2013-08-25 21:15:00,79.4,58.6,29.70,SE,128,8.0,20.0,49,0.00,CLR,,0.00,WeatherDisplay:10.37,2013-08-26 04:15:00,
2013-08-25 21:20:00,79.0,58.8,29.70,SE,132,12.0,24.0,50,0.00,CLR,,0.00,WeatherDisplay:10.37,2013-08-26 04:20:00,
2013-08-25 21:25:00,78.8,59.1,29.70,SE,139,10.0,17.0,51,0.00,CLR,,0.00,WeatherDisplay:10.37,2013-08-26 04:25:00,
2013-08-25 21:30:00,78.6,59.0,29.70,SE,136,7.0,21.0,51,0.00,CLR,,0.00,WeatherDisplay:10.37,2013-08-26 04:30:00,
2013-08-25 21:35:00,78.5,59.4,29.70,SSE,151,7.0,17.0,52,0.00,CLR,,0.00,WeatherDisplay:10.37,2013-08-26 04:35:00,
2013-08-25 21:40:00,78.3,59.2,29.71,SSE,152,7.0,15.0,52,0.00,CLR,,0.00,WeatherDisplay:10.37,2013-08-26 04:40:00,
2013-08-25 21:45:00,78.2,59.2,29.71,SSE,147,6.0,16.0,52,0.00,CLR,,0.00,WeatherDisplay:10.37,2013-08-26 04:45:00,
2013-08-25 21:50:00,78.1,59.6,29.71,SSE,147,9.0,18.0,53,0.00,CLR,,0.00,WeatherDisplay:10.37,2013-08-26 04:50:00,
2013-08-25 21:55:00,77.9,59.4,29.71,SE,142,7.0,18.0,53,0.00,CLR,,0.00,WeatherDisplay:10.37,2013-08-26 04:55:00,
2013-08-25 22:00:00,77.7,59.2,29.71,SSE,147,6.0,16.0,53,0.00,CLR,,0.00,WeatherDisplay:10.37,2013-08-26 05:00:00,
2013-08-25 22:05:00,77.9,58.8,29.72,SSE,167,7.0,15.0,52,0.00,CLR,,0.00,WeatherDisplay:10.37,2013-08-26 05:05:00,
2013-08-25 22:10:00,77.9,58.9,29.71,SSE,153,6.0,15.0,52,0.00,CLR,,0.00,WeatherDisplay:10.37,2013-08-26 05:10:00,
2013-08-25 22:15:00,77.9,58.3,29.72,SSE,149,2.0,12.0,51,0.00,CLR,,0.00,WeatherDisplay:10.37,2013-08-26 05:15:00,
2013-08-25 22:20:00,77.7,58.1,29.72,SE,145,6.0,12.0,51,0.00,CLR,,0.00,WeatherDisplay:10.37,2013-08-26 05:20:00,
2013-08-25 22:30:00,77.7,57.6,29.71,South,171,8.0,20.0,50,0.00,CLR,,0.00,WeatherDisplay:10.37,2013-08-26 05:30:00,
2013-08-25 22:40:00,77.9,58.3,29.71,SSE,155,3.0,12.0,51,0.00,CLR,,0.00,WeatherDisplay:10.37,2013-08-26 05:40:00,
2013-08-25 22:45:00,77.7,58.1,29.72,South,171,6.0,10.0,51,0.00,CLR,,0.00,WeatherDisplay:10.37,2013-08-26 05:45:00,
2013-08-25 22:50:00,77.7,58.1,29.73,SW,223,9.0,15.0,51,0.00,CLR,,0.00,WeatherDisplay:10.37,2013-08-26 05:50:00,
2013-08-25 22:55:00,78.1,56.8,29.73,WSW,248,8.0,12.0,48,0.00,CLR,,0.00,WeatherDisplay:10.37,2013-08-26 05:55:00,
2013-08-25 23:00:00,78.1,55.0,29.73,WSW,244,3.0,9.0,45,0.00,CLR,,0.00,WeatherDisplay:10.37,2013-08-26 06:00:00,
2013-08-25 23:10:00,78.5,55.4,29.73,SSW,205,3.0,9.0,45,0.00,CLR,,0.00,WeatherDisplay:10.37,2013-08-26 06:10:00,
2013-08-25 23:20:00,78.1,54.4,29.73,South,182,2.0,5.0,44,0.00,CLR,,0.00,WeatherDisplay:10.37,2013-08-26 06:20:00,
2013-08-25 23:25:00,78.3,54.0,29.73,South,184,2.0,5.0,43,0.00,CLR,,0.00,WeatherDisplay:10.37,2013-08-26 06:25:00,
2013-08-25 23:30:00,77.9,53.6,29.73,South,189,1.0,9.0,43,0.00,CLR,,0.00,WeatherDisplay:10.37,2013-08-26 06:30:00,
2013-08-25 23:40:00,77.9,52.3,29.73,SSE,162,2.0,6.0,41,0.00,CLR,,0.00,WeatherDisplay:10.37,2013-08-26 06:40:00,
2013-08-25 23:45:00,77.9,51.6,29.73,SSW,211,6.0,9.0,40,0.00,CLR,,0.00,WeatherDisplay:10.37,2013-08-26 06:45:00,
2013-08-25 23:50:00,77.4,52.5,29.73,SW,222,3.0,6.0,42,0.00,CLR,,0.00,WeatherDisplay:10.37,2013-08-26 06:50:00,
2013-08-25 23:55:00,76.8,53.2,29.73,SW,226,6.0,7.0,44,0.00,CLR,,0.00,WeatherDisplay:10.37,2013-08-26 06:55:00,